Regional Weather Roundup
Issued by NWS

Home | Current Version | Previous Version | Text Only | Print | Product List | Glossary On
Versions: 1 2 3 4 5 6 7 8 9 10 11 12 13 14 15 16 17 18 19 20 21 22 23 24 25 26 27 28 29 30 31 32 33 34 35 36 37 38 39 40 41 42 43 44 45 46 47 48 49 50
000
ASUS46 KLOX 040012
RWRCA

SOUTHERN CALIFORNIA WEATHER ROUNDUP
NATIONAL WEATHER SERVICE OXNARD CALIFORNIA
400 PM PST TUE MAR 03 2015

NOTE: "FAIR" INDICATES FEW OR NO CLOUDS BELOW 12,000 FEET WITH NO
SIGNIFICANT WEATHER AND/OR OBSTRUCTIONS TO VISIBILITY.

  -  STATIONS PRECEEDED BY AN ASTERISK (*) ARE NOT NWS OR FAA
     STATIONS AND ARE NOT SUBJECT TO NWS AND FAA QUALITY CONTROL.

CAZ041-042-087-040100-
LA AND ORANGE COUNTY COASTAL AREAS


CITY           SKY/WX    TMP DP  RH WIND       PRES   REMARKS
L.A. DOWNTOWN  SUNNY     63  45  51 VRB6      29.88F
L.A. AIRPORT   MOSUNNY   60  46  59 W17       29.90F
LONG BEACH     SUNNY     64  44  48 W12       29.88F

CITY           SKY/WX    TMP DP  RH WIND       PRES   REMARKS
AVALON           N/A     59 N/A N/A MISG        N/A
FULLERTON      SUNNY     66  40  38 W8G17     29.87S
*GETTY CENTER    N/A    N/A N/A N/A SW9G15      N/A
HAWTHORNE      SUNNY     63  44  50 W14       29.89F
*LEO CARRILLO    N/A     61  46  58 W14G25      N/A
*LOS ALAMITOS  MOSUNNY   64  43  46 SW12      29.88F
*REDONDO BEACH   N/A     63  47  57 W3        29.91S
SANTA ANA      MOSUNNY   65  40  39 SW9G17    29.89S
STA MONICA APT MOSUNNY   61  44  53 SW13G21   29.89F
*UCLA            N/A     59  43  55 SW14G23   29.86S

$$

CAZ547-548-048-040100-
LA COUNTY VALLEYS AND INLAND EMPIRE


CITY           SKY/WX    TMP DP  RH WIND       PRES   REMARKS
BURBANK        MOSUNNY   62  41  46 S9        29.87S
VAN NUYS       MOSUNNY   62  44  51 SW8       29.87S

CITY           SKY/WX    TMP DP  RH WIND       PRES   REMARKS
CORONA AIRPORT CLEAR     63  42  46 SW13G20   29.87S
CHINO          MOSUNNY   66  38  35 SW8       29.87F
MARCH AFB      SUNNY     62  33  33 VRB7      29.85F
*NORTHRIDGE      N/A     61  41  48 W6G12       N/A
ONTARIO        MOSUNNY   63  35  35 SW10      29.86F
*PASADENA        N/A     63  45  51 E5          N/A
POMONA         MOSUNNY   63  36  36 SW9       29.89F
RIVERSIDE      SUNNY     65  35  33 VRB6      29.85F
SAN BERNARDINO MOSUNNY   63  32  31 SW6       29.85F
*SAN GABRIEL     N/A     63  41  43 CALM      29.84S
*SAN RAFAEL HI   N/A     60  37  42 E8          N/A
*SAUGUS          N/A     62  40  45 NW2G20      N/A
*WHITEMAN AP   PTSUNNY   61  39  44 S9        29.90S
*WOODLAND HILL   N/A     63  41  45 W6          N/A

$$

CAZ054-055-040100-
LA AND SAN BERNARDINO COUNTY MOUNTAINS


CITY           SKY/WX    TMP DP  RH WIND       PRES   REMARKS
*BIG BEAR AIRP PTCLDY    36  19  51 NW9       29.89S WCI  29
MT WILSON NWS    N/A     43  34  70 MISG        N/A
SANDBERG       SUNNY     45  32  60 N18G26    29.93S
*WARM SPRINGS    N/A     50  34  54 W14         N/A

$$

CAZ028-029-059-060-099-040100-
ANTELOPE VALLEY AND SURROUNDING AREAS


CITY           SKY/WX    TMP DP  RH WIND       PRES   REMARKS
LANCASTER      MOSUNNY   57  33  40 W21       29.89S
PALMDALE       PTSUNNY   57  34  41 NW15      29.89F
*POPPY PARK      N/A     55  38  52 W18         N/A

CITY           SKY/WX    TMP DP  RH WIND       PRES   REMARKS
29 PALMS       MOSUNNY   60  33  36 NW3       29.92F
BARSTOW/DAGGET SUNNY     61  23  23 SW7       29.86F
BISHOP         SUNNY     54  13  19 N20G31    29.87F
CHINA LAKE     MOSUNNY   59  29  31 CALM      29.85F
EDWARDS AFB    MOSUNNY   60  32  35 W14G20    29.86S
MOJAVE         FAIR      54  36  50 W18       29.89S
NEEDLES        NOT AVBL
VICTORVILLE    SUNNY     55  25  30 N3        29.88S

$$

CAZ039-040-040100-
VENTURA AND SANTA BARBARA COUNTY COAST


CITY           SKY/WX    TMP DP  RH WIND       PRES   REMARKS
CAMARILLO        N/A     62  43  49 W13       29.89F
OXNARD AIRPORT PTSUNNY   61  44  53 W12       29.90F
*POINT MUGU    MOSUNNY   63  43  48 W10       29.91F
SBA APT/GOLETA MOSUNNY   63  46  54 SE6       29.88F
*SANTA BARBARA   N/A     67  38  34 NE3       29.96F
*VENTURA         N/A     66  43  43 SW3       29.93S

$$

CAZ044-045-040100-
VENTURA COUNTY VALLEYS


CITY           SKY/WX    TMP DP  RH WIND       PRES   REMARKS
*SIMI VALLEY     N/A     60  44  55 W5        29.87S
*OJAI            N/A     63  47  56 CALM      29.85F
*FILLMORE        N/A     63  47  57 CALM      29.79S

$$

CAZ053-040100-
VENTURA COUNTY MOUNTAINS


CITY           SKY/WX    TMP DP  RH WIND       PRES   REMARKS
*LOCKWOOD VLY    N/A     37  27  65 MISG        N/A
*ROSE VALLEY     N/A     54  37  54 MISG        N/A

$$

CAZ034-035-036-040100-
CENTRAL COAST AND SANTA YNEZ VALLEY


CITY           SKY/WX    TMP DP  RH WIND       PRES   REMARKS
SAN LUIS OBISP MOSUNNY   60  45  57 NW18      29.93F
SANTA MARIA    MOSUNNY   62  47  57 W21       29.92F

CITY           SKY/WX    TMP DP  RH WIND       PRES   REMARKS
*CAL POLY SLO    N/A     63  46  55 NW12        N/A
*LOMPOC        SUNNY     63  45  51 NW14      29.94S
*PISMO BEACH     N/A     66  48  53 SW2       29.93S
*SANTA YNEZ    FAIR      63  34  34 NE5       29.89F

$$

CAZ037-038-051-040100-
SAN LUIS OBISPO COUNTY INTERIOR AND CUYAMA VALLEY


CITY           SKY/WX    TMP DP  RH WIND       PRES   REMARKS
*CUYAMA          N/A     52  38  57 NE7       29.96S
PASO ROBLES    CLOUDY    63  40  42 N6        29.94F

$$

CAZ032-033-061-040100-
SOUTHERN DESERTS


CITY           SKY/WX    TMP DP  RH WIND       PRES   REMARKS
BLYTHE         SUNNY     63  42  46 CALM      29.85F
IMPERIAL       SUNNY     66  34  30 CALM      29.84F
PALM SPRINGS   PTSUNNY   67  31  26 CALM      29.85F
THERMAL        MOSUNNY   68  40  35 SE9       29.83S

$$

ELSEWHERE ACROSS THE WESTERN UNITED STATES AND MEXICO


CITY           SKY/WX    TMP DP  RH WIND       PRES   REMARKS
DENVER, CO     LGT SNOW  19  15  84 CALM      29.81S FOG
GRAND CANYON,  PTSUNNY   33  26  75 SW7       29.85S WCI  27
HONOLULU, HI   MOSUNNY   82  66  57 NE14G22   29.97F
KAHULUI, MAUI  PTSUNNY   81  68  65 NE20      29.99F
LAKE TAHOE, CA SUNNY     42  17  36 VRB5      29.96S
LAS VEGAS, NV  PTSUNNY   56  32  40 SW7       29.81F
MAMMOTH LAKES, FAIR      41   7  24 N13G18    29.94R WCI  34
MEXICO CITY, M CLEAR     75  37  25 SE17      30.14R
PHOENIX, AZ    PTSUNNY   60  42  51 SW9       29.83S
PORTLAND, OR   MOSUNNY   55  29  36 NW8       30.18F
RENO, NV       MOSUNNY   45  18  34 N5        30.00F
SALT LAKE CITY FLURRIES  36  24  62 N12       29.91S WCI  28
SAN DIEGO, CA  PTSUNNY   63  43  48 NW8       29.90S
SAN FRANCISCO, MOSUNNY   61  49  64 W15       29.98F
SAN JOSE, CA   MOSUNNY   63  43  48 W9        29.97F
SEATTLE, WA    MOSUNNY   50  10  20 NW6       30.22S
TIJUANA, MEX   MOSUNNY   59  45  58 NW9       29.90F

$$

STATION/POSITION TIME  TEMP    WIND        PRES    VSBY  WAVE
                       AIR SEA DIR/SP/G                  HT/PER
                 (UTC) (F)     (DEG/KT/KT) (MB)    (MI)  (FT/S)
POINT ARGUELLO B NOT AVBL
WEST SANTA BARBA 0000   57 58  320/ 21/ 27 1012.4F         7/11
POINT CONCEPTION NOT AVBL
EAST SANTA BARBA NOT AVBL
SANTA MONICA BAY 0000   58 62  270/ 12/ 16 1012.8F         3/19



USA.gov is the U.S. government's official web portal to all federal, state and local government web resources and services.